Regional Weather Roundup
Issued by NWS State College, PA

Home | Current Version | Previous Version | Text Only | Print | Product List | Glossary Off
Versions: 1 2 3 4 5 6 7 8 9 10 11 12 13 14 15 16 17 18 19 20 21 22 23 24 25 26 27 28 29 30 31 32 33 34 35 36 37 38 39 40 41 42 43 44 45 46 47 48 49 50

000
ASUS41 KCTP 221310
RWRCTP

REGIONAL WEATHER ROUNDUP
NATIONAL WEATHER SERVICE STATE COLLEGE PA
900 AM EDT TUE AUG 22 2017

Note: "fair" indicates few or no clouds below 12,000 feet with no
significant weather and/or obstructions to visibility.

* = STATION THAT DOES NOT REPORT PRECIPITATION /E.G. RAIN...SNOW...ETC/
    THUNDER OR FOG.

PAZ002>004-007>009-013>016-020>023-029>032-221400-
WESTERN PENNSYLVANIA

CITY           SKY/WX    TMP DP  RH WIND       PRES   REMARKS
ERIE           PTSUNNY   79  68  69 S15       29.87F
MEADVILLE      CLOUDY    76  70  82 SW10      29.95F
FRANKLIN*      CLOUDY    75  66  73 SW13      29.98F
NEW CASTLE     FAIR      76  70  82 SW6       29.97F
BEAVER COUNTY  SUNNY     77  68  73 S9        29.99F
BUTLER*        SUNNY     75  70  83 S9        30.00F
PITTSBURGH INT PTSUNNY   77  69  76 S9        29.99F
PITTSBURGH     SUNNY     74  67  78 S13       30.00F
INDIANA*       SUNNY     75  70  83 SW7       30.05F
LATROBE        SUNNY     75  70  83 W9        30.03F
WASHINGTON CO* MOSUNNY   73  68  83 SW7       30.02F
$$

PAZ004>006-010>012-017>019-024>028-033>037-041-042-045-046-049>053-221400-
CENTRAL PENNSYLVANIA

CITY           SKY/WX    TMP DP  RH WIND       PRES   REMARKS
BRADFORD       SUNNY     73  69  87 S8        30.00F
DUBOIS         MOSUNNY   73  67  81 SW9       30.01F
CLEARFIELD     MOSUNNY   69  69 100 SW5       30.03F FOG
JOHNSTOWN      CLOUDY    72  66  81 SW9       30.08F
ALTOONA        MOSUNNY   75  70  84 SW5       30.06F
STATE COLLEGE  SUNNY     73  70  88 SW6       30.03F
WILLIAMSPORT   CLOUDY    73  71  93 N3        29.98F FOG
SELINSGROVE    MOSUNNY   76  73  91 SW7       30.00F
FT INDIANTOWN  CLOUDY    70  70 100 CALM      30.03F FOG
CAPITAL CITY   MOSUNNY   76  70  82 CALM      30.02F
HARRISBURG     MOSUNNY   76  72  87 SE3       30.01F FOG
YORK           SUNNY     75  72  90 CALM      30.03F
$$

PAZ038>040-043-044-047-048-054-055-060>062-067>071-221400-
EASTERN PENNSYLVANIA

CITY           SKY/WX    TMP DP  RH WIND       PRES   REMARKS
SCRANTON       SUNNY     74  70  87 SW3       30.01F
MOUNT POCONO   SUNNY     72  70  93 W6        30.07F
ALLENTOWN      SUNNY     75  69  81 CALM      30.03F
QUAKERTOWN*    CLOUDY    75  73  94 SW5       30.05F
READING        SUNNY     74  73  97 CALM      30.02F FOG
LANCASTER      PTSUNNY   73  73 100 S3        30.03F FOG
COATESVILLE    CLOUDY    73  73 100 CALM      30.06F FOG
POTTSTOWN      CLOUDY    73  73 100 SW5       30.05F FOG
BLUE BELL      CLOUDY    75  72  88 SW7       30.05F
DOYLESTOWN     CLOUDY    75  73  93 SW6       30.03F
WILLOW GROVE   NOT AVBL
NORTH PHILA    CLOUDY    80  75  84 SW6       30.04F HAZE
PHILADELPHIA   CLOUDY    79  73  82 SW10      30.03F
$$




USA.gov is the U.S. government's official web portal to all federal, state and local government web resources and services.